| time (UTC) | temp F | wind direction | speed knots | gust knots | rain 1hr in | rain 24hr in | rain mn in | humidity % | barometer mb |
| 20260506211620 | 72 | 205 | 3.5 | 7.0 | 0.00 | 0.00 | 0.00 | 67 | 1010.6 |
| 20260506211117 | 72 | 141 | 3.5 | 6.1 | 0.00 | 0.00 | 0.00 | 68 | 1010.6 |
| 20260506210614 | 71 | 154 | 3.5 | 7.0 | 0.00 | 0.00 | 0.00 | 68 | 1010.6 |
| 20260506210110 | 71 | 152 | 0.0 | 5.2 | 0.00 | 0.00 | 0.00 | 68 | 1010.7 |
| 20260506205608 | 71 | 186 | 4.3 | 8.7 | 0.00 | 0.00 | 0.00 | 68 | 1010.4 |
| 20260506205103 | 71 | 111 | 0.9 | 7.8 | 0.00 | 0.00 | 0.00 | 68 | 1010.5 |
| 20260506204601 | 71 | 208 | 3.5 | 7.0 | 0.00 | 0.00 | 0.00 | 69 | 1010.5 |
| 20260506204057 | 71 | 214 | 2.6 | 5.2 | 0.00 | 0.00 | 0.00 | 69 | 1010.6 |
| 20260506203556 | 71 | 170 | 2.6 | 4.3 | 0.00 | 0.00 | 0.00 | 70 | 1010.4 |
| 20260506203052 | 71 | 152 | 5.2 | 5.2 | 0.00 | 0.00 | 0.00 | 70 | 1010.7 |
| 20260506202550 | 70 | 175 | 4.3 | 6.1 | 0.00 | 0.00 | 0.00 | 71 | 1010.5 |
| 20260506202046 | 70 | 180 | 4.3 | 5.2 | 0.00 | 0.00 | 0.00 | 71 | 1010.4 |
| 20260506201544 | 70 | 182 | 3.5 | 7.0 | 0.00 | 0.00 | 0.00 | 71 | 1010.6 |
| 20260506201040 | 70 | 171 | 1.7 | 7.0 | 0.00 | 0.00 | 0.00 | 72 | 1010.7 |
| 20260506200536 | 70 | 189 | 1.7 | 4.3 | 0.00 | 0.00 | 0.00 | 72 | 1010.8 |
| 20260506200033 | 69 | 155 | 4.3 | 7.8 | 0.00 | 0.00 | 0.00 | 72 | 1011.2 |
| 20260506195530 | 69 | 202 | 3.5 | 7.0 | 0.00 | 0.00 | 0.00 | 73 | 1011.2 |
| 20260506195026 | 69 | 153 | 4.3 | 6.1 | 0.00 | 0.00 | 0.00 | 73 | 1010.9 |
| 20260506194524 | 69 | 168 | 3.5 | 7.8 | 0.00 | 0.00 | 0.00 | 73 | 1011.3 |
| 20260506194020 | 69 | 188 | 2.6 | 4.3 | 0.00 | 0.00 | 0.00 | 73 | 1011.0 |
| 20260506193517 | 69 | 161 | 3.5 | 4.3 | 0.00 | 0.00 | 0.00 | 73 | 1011.3 |
| 20260506193015 | 68 | 241 | 2.6 | 5.2 | 0.00 | 0.00 | 0.00 | 74 | 1011.2 |
| 20260506192511 | 68 | 184 | 5.2 | 7.0 | 0.00 | 0.00 | 0.00 | 73 | 1011.5 |
| 20260506192007 | 68 | 162 | 4.3 | 7.8 | 0.00 | 0.00 | 0.00 | 74 | 1011.3 |
| 20260506191504 | 68 | 182 | 2.6 | 5.2 | 0.00 | 0.00 | 0.00 | 75 | 1011.4 |
| 20260506191001 | 68 | 205 | 2.6 | 9.6 | 0.00 | 0.00 | 0.00 | 75 | 1011.3 |
| 20260506190458 | 68 | 188 | 2.6 | 6.1 | 0.00 | 0.00 | 0.00 | 75 | 1011.5 |
| 20260506185954 | 67 | 204 | 4.3 | 7.8 | 0.00 | 0.00 | 0.00 | 76 | 1011.5 |
| 20260506185452 | 67 | 265 | 5.2 | 6.1 | 0.00 | 0.00 | 0.00 | 77 | 1011.9 |
| 20260506184948 | 67 | 121 | 1.7 | 6.1 | 0.00 | 0.00 | 0.00 | 74 | 1011.8 |
| 20260506184446 | 67 | 163 | 4.3 | 10.4 | 0.00 | 0.00 | 0.00 | 73 | 1011.6 |
| 20260506183943 | 68 | 189 | 5.2 | 6.1 | 0.00 | 0.00 | 0.00 | 72 | 1011.7 |
| 20260506183438 | 68 | 167 | 2.6 | 7.0 | 0.00 | 0.00 | 0.00 | 71 | 1011.7 |
| 20260506182935 | 69 | 175 | 3.5 | 9.6 | 0.00 | 0.00 | 0.00 | 70 | 1011.7 |
| 20260506182432 | 69 | 183 | 1.7 | 5.2 | 0.00 | 0.00 | 0.00 | 69 | 1011.7 |
| 20260506181930 | 69 | 187 | 2.6 | 8.7 | 0.00 | 0.00 | 0.00 | 69 | 1011.7 |
| 20260506181428 | 69 | 164 | 2.6 | 7.8 | 0.00 | 0.00 | 0.00 | 69 | 1011.5 |
| 20260506180924 | 69 | 172 | 2.6 | 4.3 | 0.00 | 0.00 | 0.00 | 70 | 1011.8 |
| 20260506180420 | 69 | 171 | 4.3 | 8.7 | 0.00 | 0.00 | 0.00 | 69 | 1011.9 |
| 20260506175918 | 70 | 160 | 4.3 | 6.1 | 0.00 | 0.00 | 0.00 | 69 | 1011.9 |
| 20260506175414 | 70 | 160 | 4.3 | 7.8 | 0.00 | 0.00 | 0.00 | 69 | 1012.1 |
| 20260506174911 | 70 | 150 | 3.5 | 9.6 | 0.00 | 0.00 | 0.00 | 69 | 1012.1 |
| 20260506174409 | 70 | 158 | 7.0 | 7.0 | 0.00 | 0.00 | 0.00 | 69 | 1012.3 |
| 20260506173906 | 70 | 176 | 3.5 | 7.8 | 0.00 | 0.00 | 0.00 | 69 | 1012.3 |
| 20260506173402 | 70 | 162 | 6.1 | 6.1 | 0.00 | 0.00 | 0.00 | 69 | 1012.1 |
| 20260506172859 | 71 | 137 | 3.5 | 8.7 | 0.00 | 0.00 | 0.00 | 68 | 1012.5 |
| 20260506172356 | 70 | 194 | 4.3 | 6.1 | 0.00 | 0.00 | 0.00 | 70 | 1012.1 |
| 20260506171853 | 70 | 164 | 4.3 | 5.2 | 0.00 | 0.00 | 0.00 | 71 | 1012.0 |
| 20260506171351 | 69 | 159 | 3.5 | 3.5 | 0.00 | 0.00 | 0.00 | 72 | 1012.4 |
| 20260506170848 | 69 | 193 | 3.5 | 6.1 | 0.00 | 0.00 | 0.00 | 73 | 1012.6 |
| 20260506170343 | 68 | 135 | 3.5 | 4.3 | 0.00 | 0.00 | 0.00 | 74 | 1012.6 |
| 20260506165838 | 68 | 159 | 3.5 | 5.2 | 0.00 | 0.00 | 0.00 | 73 | 1012.6 |
| 20260506165335 | 68 | 167 | 2.6 | 4.3 | 0.00 | 0.00 | 0.00 | 73 | 1012.9 |
| 20260506164831 | 68 | 158 | 6.1 | 6.1 | 0.00 | 0.00 | 0.00 | 73 | 1013.1 |
| 20260506164328 | 68 | 186 | 2.6 | 9.6 | 0.00 | 0.00 | 0.00 | 73 | 1013.3 |
| 20260506163826 | 68 | 157 | 4.3 | 6.1 | 0.00 | 0.00 | 0.00 | 73 | 1013.4 |
| 20260506163320 | 68 | 128 | 4.3 | 7.0 | 0.00 | 0.00 | 0.00 | 72 | 1013.4 |
| 20260506162816 | 68 | 161 | 5.2 | 5.2 | 0.00 | 0.00 | 0.00 | 72 | 1013.5 |
| 20260506162314 | 68 | 187 | 3.5 | 4.3 | 0.00 | 0.00 | 0.00 | 72 | 1013.5 |
| 20260506161811 | 68 | 172 | 2.6 | 6.1 | 0.00 | 0.00 | 0.00 | 72 | 1013.6 |
| 20260506161308 | 67 | 169 | 3.5 | 6.1 | 0.00 | 0.00 | 0.00 | 72 | 1013.4 |
| 20260506160806 | 68 | 160 | 4.3 | 5.2 | 0.00 | 0.00 | 0.00 | 72 | 1013.6 |
| 20260506160302 | 68 | 160 | 5.2 | 5.2 | 0.00 | 0.00 | 0.00 | 71 | 1013.6 |
| 20260506155801 | 68 | 254 | 1.7 | 7.8 | 0.00 | 0.00 | 0.00 | 72 | 1013.6 |
| 20260506155257 | 68 | 180 | 3.5 | 4.3 | 0.00 | 0.00 | 0.00 | 72 | 1013.7 |
| 20260506153410 | 68 | 163 | 2.6 | 5.2 | 0.00 | 0.00 | 0.00 | 71 | 1013.6 |
| 20260506152907 | 68 | 157 | 2.6 | 7.8 | 0.00 | 0.00 | 0.00 | 71 | 1013.7 |
| 20260506152404 | 68 | 103 | 4.3 | 6.1 | 0.00 | 0.00 | 0.00 | 70 | 1013.8 |
| 20260506151903 | 68 | 121 | 4.3 | 4.3 | 0.00 | 0.00 | 0.00 | 71 | 1013.8 |
| 20260506151359 | 68 | 156 | 4.3 | 4.3 | 0.00 | 0.00 | 0.00 | 71 | 1013.8 |
| 20260506150857 | 68 | 158 | 1.7 | 7.0 | 0.00 | 0.00 | 0.00 | 70 | 1013.9 |
| 20260506150353 | 68 | 191 | 1.7 | 5.2 | 0.00 | 0.00 | 0.00 | 70 | 1013.9 |
| 20260506145850 | 68 | 160 | 4.3 | 4.3 | 0.00 | 0.00 | 0.00 | 70 | 1013.9 |
| 20260506145346 | 68 | 166 | 3.5 | 6.1 | 0.00 | 0.00 | 0.00 | 70 | 1014.1 |
| 20260506144844 | 69 | 112 | 3.5 | 5.2 | 0.00 | 0.00 | 0.00 | 69 | 1013.9 |
| 20260506144340 | 69 | 192 | 2.6 | 9.6 | 0.00 | 0.00 | 0.00 | 69 | 1014.0 |
| 20260506143838 | 69 | 159 | 4.3 | 6.1 | 0.00 | 0.00 | 0.00 | 68 | 1014.0 |
| 20260506143335 | 70 | 213 | 2.6 | 4.3 | 0.00 | 0.00 | 0.00 | 68 | 1014.0 |
| 20260506142834 | 70 | 154 | 6.1 | 7.0 | 0.00 | 0.00 | 0.00 | 68 | 1013.9 |
| 20260506142331 | 70 | 154 | 6.1 | 6.1 | 0.00 | 0.00 | 0.00 | 67 | 1014.0 |
| 20260506141829 | 69 | 162 | 3.5 | 5.2 | 0.00 | 0.00 | 0.00 | 68 | 1014.0 |
| 20260506141327 | 70 | 198 | 1.7 | 5.2 | 0.00 | 0.00 | 0.00 | 67 | 1013.9 |
| 20260506140825 | 70 | 196 | 3.5 | 4.3 | 0.00 | 0.00 | 0.00 | 66 | 1013.8 |
| 20260506140321 | 70 | 158 | 4.3 | 6.1 | 0.00 | 0.00 | 0.00 | 66 | 1013.9 |
| 20260506135818 | 70 | 187 | 3.5 | 7.0 | 0.00 | 0.00 | 0.00 | 65 | 1013.9 |
| 20260506135315 | 71 | 169 | 4.3 | 6.1 | 0.00 | 0.00 | 0.00 | 64 | 1014.0 |
| 20260506134811 | 73 | 157 | 6.1 | 7.0 | 0.00 | 0.00 | 0.00 | 63 | 1014.0 |
| 20260506134308 | 72 | 246 | 1.7 | 4.3 | 0.00 | 0.00 | 0.00 | 63 | 1013.9 |
| 20260506133805 | 71 | 161 | 2.6 | 5.2 | 0.00 | 0.00 | 0.00 | 65 | 1014.0 |
| 20260506133302 | 72 | 190 | 1.7 | 7.8 | 0.00 | 0.00 | 0.00 | 63 | 1014.1 |
| 20260506132758 | 72 | 157 | 3.5 | 6.1 | 0.00 | 0.00 | 0.00 | 63 | 1014.4 |
| 20260506132256 | 72 | 195 | 1.7 | 6.1 | 0.00 | 0.00 | 0.00 | 64 | 1014.3 |
| 20260506131754 | 71 | 157 | 5.2 | 7.8 | 0.00 | 0.00 | 0.00 | 64 | 1014.3 |
| 20260506131249 | 71 | 142 | 1.7 | 5.2 | 0.00 | 0.00 | 0.00 | 64 | 1014.3 |
| 20260506130746 | 70 | 179 | 4.3 | 6.1 | 0.00 | 0.00 | 0.00 | 66 | 1014.3 |
| 20260506130243 | 71 | 155 | 3.5 | 7.8 | 0.00 | 0.00 | 0.00 | 65 | 1014.4 |
| 20260506125741 | 70 | 166 | 3.5 | 5.2 | 0.00 | 0.00 | 0.00 | 66 | 1014.1 |
| 20260506125239 | 69 | 182 | 2.6 | 7.8 | 0.00 | 0.00 | 0.00 | 67 | 1014.3 |
| 20260506124737 | 69 | 150 | 9.6 | 10.4 | 0.00 | 0.00 | 0.00 | 67 | 1014.1 |
| 20260506124234 | 68 | 184 | 5.2 | 7.0 | 0.00 | 0.00 | 0.00 | 69 | 1014.2 |
| 20260506123732 | 67 | 160 | 4.3 | 6.1 | 0.00 | 0.00 | 0.00 | 70 | 1014.2 |
| 20260506123230 | 67 | 177 | 2.6 | 4.3 | 0.00 | 0.00 | 0.00 | 70 | 1014.2 |
| 20260506122727 | 68 | 180 | 0.9 | 9.6 | 0.00 | 0.00 | 0.00 | 69 | 1014.2 |
| 20260506122224 | 68 | 178 | 2.6 | 6.1 | 0.00 | 0.00 | 0.00 | 69 | 1014.2 |
| 20260506121722 | 67 | 165 | 4.3 | 4.3 | 0.00 | 0.00 | 0.00 | 70 | 1014.2 |
| 20260506121219 | 67 | 157 | 3.5 | 5.2 | 0.00 | 0.00 | 0.00 | 71 | 1014.3 |
| 20260506120716 | 65 | 153 | 6.1 | 6.1 | 0.00 | 0.00 | 0.00 | 74 | 1014.4 |
| 20260506120213 | 66 | 198 | 3.5 | 7.8 | 0.00 | 0.00 | 0.00 | 72 | 1014.2 |
| 20260506115711 | 66 | 176 | 2.6 | 7.0 | 0.00 | 0.00 | 0.00 | 72 | 1014.1 |
| 20260506115209 | 66 | 154 | 7.0 | 9.6 | 0.00 | 0.00 | 0.00 | 72 | 1014.3 |
| 20260506114707 | 65 | 159 | 2.6 | 6.1 | 0.00 | 0.00 | 0.00 | 73 | 1014.5 |
| 20260506114204 | 66 | 177 | 2.6 | 5.2 | 0.00 | 0.00 | 0.00 | 73 | 1014.5 |
| 20260506113703 | 66 | 161 | 4.3 | 7.8 | 0.00 | 0.00 | 0.00 | 73 | 1014.4 |
| 20260506113200 | 65 | 168 | 3.5 | 5.2 | 0.00 | 0.00 | 0.00 | 74 | 1014.5 |
| 20260506112655 | 65 | 182 | 2.6 | 7.8 | 0.00 | 0.00 | 0.00 | 74 | 1014.6 |
| 20260506112153 | 64 | 188 | 1.7 | 5.2 | 0.00 | 0.00 | 0.00 | 75 | 1014.5 |
| 20260506111651 | 64 | 159 | 4.3 | 7.0 | 0.00 | 0.00 | 0.00 | 75 | 1014.4 |
| 20260506111149 | 64 | 10 | 1.7 | 10.4 | 0.00 | 0.00 | 0.00 | 75 | 1014.6 |
| 20260506110646 | 64 | 174 | 3.5 | 7.0 | 0.00 | 0.00 | 0.00 | 75 | 1014.1 |
| 20260506110143 | 64 | 158 | 4.3 | 7.0 | 0.00 | 0.00 | 0.00 | 76 | 1014.3 |
| 20260506105639 | 63 | 136 | 6.1 | 6.1 | 0.00 | 0.00 | 0.00 | 78 | 1014.5 |
| 20260506105137 | 63 | 157 | 4.3 | 4.3 | 0.00 | 0.00 | 0.00 | 78 | 1014.3 |
| 20260506104634 | 62 | 180 | 4.3 | 4.3 | 0.00 | 0.00 | 0.00 | 80 | 1014.3 |
| 20260506104132 | 61 | 191 | 4.3 | 5.2 | 0.00 | 0.00 | 0.00 | 81 | 1014.4 |
| 20260506103629 | 61 | 152 | 2.6 | 5.2 | 0.00 | 0.00 | 0.00 | 82 | 1014.5 |
| 20260506103126 | 61 | 190 | 2.6 | 6.1 | 0.00 | 0.00 | 0.00 | 82 | 1014.5 |
| 20260506102624 | 61 | 191 | 3.5 | 7.8 | 0.00 | 0.00 | 0.00 | 82 | 1014.3 |
| 20260506102121 | 61 | 161 | 3.5 | 6.1 | 0.00 | 0.00 | 0.00 | 82 | 1014.4 |
| 20260506101617 | 61 | 152 | 4.3 | 5.2 | 0.00 | 0.00 | 0.00 | 82 | 1014.3 |
| 20260506101114 | 61 | 183 | 3.5 | 5.2 | 0.00 | 0.00 | 0.00 | 82 | 1014.4 |
| 20260506100613 | 61 | 135 | 2.6 | 7.0 | 0.00 | 0.00 | 0.00 | 82 | 1014.1 |
| 20260506100110 | 61 | 158 | 3.5 | 5.2 | 0.00 | 0.00 | 0.00 | 82 | 1014.2 |
| 20260506095609 | 61 | 195 | 1.7 | 5.2 | 0.00 | 0.00 | 0.00 | 82 | 1014.0 |
| 20260506095106 | 61 | 156 | 4.3 | 6.1 | 0.00 | 0.00 | 0.00 | 82 | 1014.2 |
| 20260506094603 | 61 | 174 | 2.6 | 7.8 | 0.00 | 0.00 | 0.00 | 82 | 1014.1 |
| 20260506094100 | 61 | 180 | 2.6 | 6.1 | 0.00 | 0.00 | 0.00 | 82 | 1014.2 |
| 20260506093559 | 61 | 154 | 3.5 | 6.1 | 0.00 | 0.00 | 0.00 | 83 | 1014.0 |
| 20260506093056 | 61 | 203 | 3.5 | 7.8 | 0.00 | 0.00 | 0.00 | 83 | 1014.2 |
| 20260506092554 | 61 | 152 | 3.5 | 7.8 | 0.00 | 0.00 | 0.00 | 83 | 1014.2 |
| 20260506092050 | 61 | 158 | 6.1 | 6.1 | 0.00 | 0.00 | 0.00 | 83 | 1014.4 |
| 20260506091548 | 61 | 148 | 2.6 | 4.3 | 0.00 | 0.00 | 0.00 | 83 | 1014.5 |
| 20260506091046 | 61 | 159 | 4.3 | 7.0 | 0.00 | 0.00 | 0.00 | 83 | 1014.3 |
| 20260506090543 | 61 | 162 | 6.1 | 8.7 | 0.00 | 0.00 | 0.00 | 83 | 1014.5 |
| 20260506090039 | 61 | 169 | 2.6 | 5.2 | 0.00 | 0.00 | 0.00 | 83 | 1014.6 |
| 20260506085536 | 61 | 182 | 2.6 | 5.2 | 0.00 | 0.00 | 0.00 | 83 | 1014.5 |
| 20260506085033 | 61 | 185 | 4.3 | 6.1 | 0.00 | 0.00 | 0.00 | 83 | 1014.5 |
| 20260506084530 | 61 | 137 | 5.2 | 7.0 | 0.00 | 0.00 | 0.00 | 83 | 1014.5 |
| 20260506084025 | 61 | 154 | 2.6 | 4.3 | 0.00 | 0.00 | 0.00 | 83 | 1014.8 |
| 20260506083523 | 61 | 178 | 2.6 | 4.3 | 0.00 | 0.00 | 0.00 | 83 | 1014.5 |
| 20260506083021 | 61 | 178 | 2.6 | 6.1 | 0.00 | 0.00 | 0.00 | 83 | 1014.6 |
| 20260506082517 | 61 | 181 | 3.5 | 4.3 | 0.00 | 0.00 | 0.00 | 83 | 1014.7 |
| 20260506082013 | 61 | 228 | 1.7 | 3.5 | 0.00 | 0.00 | 0.00 | 83 | 1014.6 |
| 20260506081511 | 61 | 180 | 4.3 | 7.0 | 0.00 | 0.00 | 0.00 | 83 | 1014.7 |
| 20260506081009 | 61 | 152 | 3.5 | 4.3 | 0.00 | 0.00 | 0.00 | 82 | 1014.6 |
| 20260506080506 | 61 | 160 | 2.6 | 7.0 | 0.00 | 0.00 | 0.00 | 82 | 1014.7 |
| 20260506073449 | 61 | 195 | 4.3 | 6.1 | 0.00 | 0.00 | 0.00 | 81 | 1014.6 |
| 20260506072946 | 61 | 187 | 3.5 | 7.0 | 0.00 | 0.00 | 0.00 | 81 | 1014.8 |
| 20260506072443 | 61 | 190 | 3.5 | 6.1 | 0.00 | 0.00 | 0.00 | 81 | 1014.9 |
| 20260506071941 | 61 | 160 | 3.5 | 5.2 | 0.00 | 0.00 | 0.00 | 81 | 1014.9 |
| 20260506071439 | 61 | 176 | 5.2 | 5.2 | 0.00 | 0.00 | 0.00 | 81 | 1014.8 |
| 20260506070936 | 61 | 158 | 3.5 | 4.3 | 0.00 | 0.00 | 0.00 | 81 | 1014.9 |
| 20260506070433 | 62 | 177 | 2.6 | 5.2 | 0.00 | 0.00 | 0.00 | 80 | 1015.0 |
| 20260506062410 | 62 | 198 | 2.6 | 4.3 | 0.00 | 0.00 | 0.00 | 79 | 1014.6 |
| 20260506061906 | 62 | 187 | 1.7 | 5.2 | 0.00 | 0.00 | 0.00 | 78 | 1014.6 |
| 20260506061403 | 62 | 161 | 5.2 | 5.2 | 0.00 | 0.00 | 0.00 | 78 | 1014.7 |
| 20260506060901 | 62 | 181 | 5.2 | 8.7 | 0.00 | 0.00 | 0.00 | 78 | 1014.8 |
| 20260506060358 | 62 | 163 | 4.3 | 5.2 | 0.00 | 0.00 | 0.00 | 78 | 1014.9 |
| 20260506051330 | 62 | 180 | 1.7 | 5.2 | 0.00 | 0.00 | 0.00 | 77 | 1015.2 |
| 20260506050828 | 63 | 177 | 1.7 | 5.2 | 0.00 | 0.00 | 0.00 | 77 | 1015.1 |
| 20260506050325 | 63 | 165 | 2.6 | 4.3 | 0.00 | 0.00 | 0.00 | 77 | 1015.4 |
| 20260506044816 | 63 | 180 | 0.9 | 11.3 | 0.00 | 0.00 | 0.00 | 76 | 1015.3 |
| 20260506044314 | 63 | 177 | 2.6 | 7.8 | 0.00 | 0.00 | 0.00 | 76 | 1015.3 |
| 20260506043810 | 63 | 143 | 3.5 | 4.3 | 0.00 | 0.00 | 0.00 | 76 | 1015.2 |
| 20260506043308 | 63 | 161 | 3.5 | 6.1 | 0.00 | 0.00 | 0.00 | 76 | 1015.2 |
| 20260506042806 | 63 | 155 | 3.5 | 6.1 | 0.00 | 0.00 | 0.00 | 76 | 1015.2 |
| 20260506042305 | 63 | 163 | 4.3 | 4.3 | 0.00 | 0.00 | 0.00 | 76 | 1015.4 |
| 20260506041803 | 63 | 120 | 0.0 | 4.3 | 0.00 | 0.00 | 0.00 | 75 | 1015.3 |
| 20260506041259 | 63 | 206 | 2.6 | 6.1 | 0.00 | 0.00 | 0.00 | 75 | 1015.2 |
| 20260506040757 | 64 | 164 | 4.3 | 7.8 | 0.00 | 0.00 | 0.00 | 74 | 1015.3 |
| 20260506040254 | 64 | 168 | 4.3 | 8.7 | 0.00 | 0.00 | 0.00 | 74 | 1015.2 |
| 20260506035750 | 64 | 177 | 4.3 | 6.1 | 0.00 | 0.00 | 0.00 | 74 | 1015.3 |
| 20260506035247 | 64 | 161 | 4.3 | 7.0 | 0.00 | 0.00 | 0.00 | 73 | 1015.2 |
| 20260506034744 | 64 | 161 | 5.2 | 5.2 | 0.00 | 0.00 | 0.00 | 73 | 1015.5 |
| 20260506034242 | 64 | 164 | 3.5 | 6.1 | 0.00 | 0.00 | 0.00 | 72 | 1015.4 |
| 20260506033739 | 64 | 146 | 4.3 | 6.1 | 0.00 | 0.00 | 0.00 | 72 | 1015.3 |
| 20260506033236 | 65 | 158 | 3.5 | 7.8 | 0.00 | 0.00 | 0.00 | 71 | 1015.2 |
| 20260506032733 | 65 | 145 | 6.1 | 7.0 | 0.00 | 0.00 | 0.00 | 71 | 1015.3 |
| 20260506032230 | 65 | 158 | 3.5 | 8.7 | 0.00 | 0.00 | 0.00 | 71 | 1015.1 |
| 20260506031726 | 65 | 214 | 3.5 | 6.1 | 0.00 | 0.00 | 0.00 | 71 | 1015.1 |
| 20260506031223 | 65 | 163 | 3.5 | 5.2 | 0.00 | 0.00 | 0.00 | 70 | 1015.2 |
| 20260506030722 | 66 | 162 | 4.3 | 12.2 | 0.00 | 0.00 | 0.00 | 70 | 1015.2 |
| 20260506030219 | 65 | 160 | 4.3 | 9.6 | 0.00 | 0.00 | 0.00 | 70 | 1015.3 |
| 20260506025716 | 65 | 162 | 5.2 | 6.1 | 0.00 | 0.00 | 0.00 | 70 | 1015.2 |
| 20260506025212 | 65 | 225 | 2.6 | 8.7 | 0.00 | 0.00 | 0.00 | 69 | 1015.2 |
| 20260506024709 | 66 | 171 | 3.5 | 11.3 | 0.00 | 0.00 | 0.00 | 69 | 1015.4 |
| 20260506024206 | 66 | 169 | 4.3 | 11.3 | 0.00 | 0.00 | 0.00 | 69 | 1015.4 |
| 20260506023702 | 66 | 319 | 1.7 | 9.6 | 0.00 | 0.00 | 0.00 | 69 | 1015.5 |
| 20260506023200 | 66 | 201 | 4.3 | 9.6 | 0.00 | 0.00 | 0.00 | 68 | 1015.6 |
| 20260506022656 | 66 | 167 | 13.0 | 13.0 | 0.00 | 0.00 | 0.00 | 68 | 1015.5 |
| 20260506022154 | 66 | 167 | 4.3 | 5.2 | 0.00 | 0.00 | 0.00 | 68 | 1015.4 |
| 20260506021652 | 66 | 158 | 6.1 | 8.7 | 0.00 | 0.00 | 0.00 | 68 | 1015.5 |
| 20260506021148 | 66 | 162 | 6.1 | 7.8 | 0.00 | 0.00 | 0.00 | 68 | 1015.4 |
| 20260506020645 | 66 | 246 | 1.7 | 7.0 | 0.00 | 0.00 | 0.00 | 68 | 1015.6 |
| 20260506020143 | 66 | 206 | 4.3 | 7.8 | 0.00 | 0.00 | 0.00 | 68 | 1015.5 |
| 20260506015641 | 66 | 162 | 3.5 | 7.0 | 0.00 | 0.00 | 0.00 | 68 | 1015.4 |
| 20260506015138 | 66 | 178 | 5.2 | 7.8 | 0.00 | 0.00 | 0.00 | 68 | 1015.6 |
| 20260506014635 | 67 | 255 | 0.9 | 8.7 | 0.00 | 0.00 | 0.00 | 68 | 1015.2 |
| 20260506014130 | 67 | 174 | 3.5 | 8.7 | 0.00 | 0.00 | 0.00 | 68 | 1015.2 |
| 20260506013629 | 67 | 170 | 3.5 | 7.8 | 0.00 | 0.00 | 0.00 | 68 | 1015.4 |
| 20260506013126 | 67 | 170 | 3.5 | 16.5 | 0.00 | 0.00 | 0.00 | 67 | 1015.5 |
| 20260506012622 | 67 | 176 | 4.3 | 7.8 | 0.00 | 0.00 | 0.00 | 67 | 1015.3 |
| 20260506012118 | 67 | 193 | 2.6 | 7.8 | 0.00 | 0.00 | 0.00 | 67 | 1015.2 |
| 20260506011616 | 67 | 168 | 5.2 | 7.0 | 0.00 | 0.00 | 0.00 | 67 | 1015.2 |
| 20260506011112 | 67 | 154 | 7.0 | 10.4 | 0.00 | 0.00 | 0.00 | 67 | 1015.1 |
| 20260506010606 | 67 | 191 | 4.3 | 9.6 | 0.00 | 0.00 | 0.00 | 66 | 1015.3 |
| 20260506005559 | 68 | 128 | 4.3 | 11.3 | 0.00 | 0.00 | 0.00 | 64 | 1015.1 |
| 20260506005055 | 68 | 166 | 5.2 | 10.4 | 0.00 | 0.00 | 0.00 | 63 | 1015.3 |
| 20260506004553 | 68 | 159 | 6.1 | 9.6 | 0.00 | 0.00 | 0.00 | 62 | 1015.1 |
| 20260506004049 | 68 | 180 | 4.3 | 8.7 | 0.00 | 0.00 | 0.00 | 62 | 1015.2 |
| 20260506003546 | 68 | 180 | 3.5 | 6.1 | 0.00 | 0.00 | 0.00 | 61 | 1014.8 |
| 20260506003042 | 68 | 170 | 2.6 | 13.0 | 0.00 | 0.00 | 0.00 | 61 | 1015.0 |
| 20260506002538 | 68 | 180 | 3.5 | 7.8 | 0.00 | 0.00 | 0.00 | 61 | 1014.9 |
| 20260506002034 | 68 | 180 | 3.5 | 14.8 | 0.00 | 0.00 | 0.00 | 61 | 1014.9 |
| 20260506001530 | 68 | 183 | 6.1 | 7.8 | 0.00 | 0.00 | 0.00 | 61 | 1014.7 |
| 20260506001028 | 68 | 184 | 5.2 | 9.6 | 0.00 | 0.00 | 0.00 | 60 | 1014.7 |
| 20260506000525 | 68 | 163 | 4.3 | 7.0 | 0.00 | 0.00 | 0.00 | 60 | 1014.6 |
| 20260506000023 | 68 | 186 | 5.2 | 7.0 | 0.00 | 0.00 | 0.00 | 60 | 1014.5 |
| 20260505235521 | 68 | 154 | 3.5 | 6.1 | 0.00 | 0.00 | 0.00 | 59 | 1014.5 |
| 20260505235017 | 69 | 182 | 3.5 | 7.0 | 0.00 | 0.00 | 0.00 | 58 | 1014.4 |
| 20260505234514 | 69 | 191 | 4.3 | 13.9 | 0.00 | 0.00 | 0.00 | 58 | 1014.6 |
| 20260505234011 | 69 | 181 | 7.0 | 10.4 | 0.00 | 0.00 | 0.00 | 58 | 1014.3 |
| 20260505233508 | 69 | 169 | 1.7 | 7.0 | 0.00 | 0.00 | 0.00 | 58 | 1014.3 |
| 20260505233006 | 69 | 255 | 0.9 | 8.7 | 0.00 | 0.00 | 0.00 | 57 | 1014.4 |
| 20260505232504 | 69 | 154 | 6.1 | 9.6 | 0.00 | 0.00 | 0.00 | 57 | 1014.4 |
| 20260505232001 | 70 | 176 | 3.5 | 12.2 | 0.00 | 0.00 | 0.00 | 56 | 1014.2 |
| 20260505231457 | 70 | 172 | 5.2 | 10.4 | 0.00 | 0.00 | 0.00 | 56 | 1014.3 |
| 20260505230956 | 70 | 189 | 5.2 | 7.8 | 0.00 | 0.00 | 0.00 | 56 | 1014.4 |
| 20260505230453 | 70 | 212 | 2.6 | 6.1 | 0.00 | 0.00 | 0.00 | 55 | 1014.3 |
| 20260505225949 | 71 | 80 | 3.5 | 9.6 | 0.00 | 0.00 | 0.00 | 55 | 1014.1 |
| 20260505225447 | 71 | 225 | 2.6 | 13.9 | 0.00 | 0.00 | 0.00 | 54 | 1014.1 |
| 20260505224942 | 71 | 210 | 3.5 | 9.6 | 0.00 | 0.00 | 0.00 | 54 | 1014.0 |
| 20260505224439 | 71 | 156 | 6.1 | 7.0 | 0.00 | 0.00 | 0.00 | 54 | 1014.0 |
| 20260505223937 | 71 | 197 | 1.7 | 8.7 | 0.00 | 0.00 | 0.00 | 53 | 1013.8 |
| 20260505223433 | 72 | 192 | 6.1 | 9.6 | 0.00 | 0.00 | 0.00 | 53 | 1013.8 |
| 20260505222930 | 72 | 172 | 2.6 | 12.2 | 0.00 | 0.00 | 0.00 | 52 | 1014.1 |
| 20260505222426 | 72 | 180 | 3.5 | 9.6 | 0.00 | 0.00 | 0.00 | 51 | 1014.0 |
| 20260505221922 | 73 | 184 | 0.0 | 5.2 | 0.00 | 0.00 | 0.00 | 51 | 1013.6 |
| 20260505221420 | 73 | 184 | 3.5 | 9.6 | 0.00 | 0.00 | 0.00 | 51 | 1013.7 |
| 20260505220917 | 73 | 164 | 2.6 | 5.2 | 0.00 | 0.00 | 0.00 | 52 | 1013.7 |
| 20260505220414 | 73 | 148 | 2.6 | 7.0 | 0.00 | 0.00 | 0.00 | 52 | 1013.7 |
| 20260505215911 | 73 | 169 | 4.3 | 6.1 | 0.00 | 0.00 | 0.00 | 51 | 1013.7 |
| 20260505215409 | 73 | 180 | 2.6 | 5.2 | 0.00 | 0.00 | 0.00 | 50 | 1013.3 |
| 20260505214907 | 74 | 196 | 5.2 | 7.8 | 0.00 | 0.00 | 0.00 | 49 | 1013.3 |
| 20260505214404 | 74 | 161 | 6.1 | 7.0 | 0.00 | 0.00 | 0.00 | 49 | 1013.5 |
| 20260505213901 | 74 | 180 | 3.5 | 8.7 | 0.00 | 0.00 | 0.00 | 48 | 1013.3 |
| 20260505213359 | 74 | 172 | 4.3 | 11.3 | 0.00 | 0.00 | 0.00 | 48 | 1013.2 |
| 20260505212855 | 75 | 185 | 2.6 | 6.1 | 0.00 | 0.00 | 0.00 | 47 | 1013.4 |
| 20260505212352 | 75 | 169 | 7.0 | 13.9 | 0.00 | 0.00 | 0.00 | 46 | 1013.4 |